Find Qianfan Jigui 02-04

NORAD ID: 61555 Int'l Des: 2024-185 Owner: YUANX Country: CN Constellation: qianfan operational
LEOCIRCULARPOLAR

リアルタイム位置

3D地球を読み込み中...

Qianfan Jigui 02-04について

説明を読み込み中...

次回通過

Passes for default location (London). Set your location on the main map for personalized predictions.

高度履歴

Loading altitude history...

軌道要素

1 61555U 24185D 26119.57582263 .00000321 00000-0 26603-3 0 9995
2 61555 88.9815 64.1214 0004693 312.1779 47.8994 13.86370561 88033
Epoch: Apr 29, 2026 • Age: 7 hours

現在のステータス

高度 945.6 km
速度 7.38 km/s
衛星直下点 34.55°N, 106.75°W
打ち上げ日 Oct 15, 2024
運用期間 1.5 years
タイプ internet

技術仕様

分類 Payload
質量 267.00 kg
乾燥質量 267.00 kg
総質量 267.00 kg
長さ 0.30 m
直径 3.00 m
スパン 10.00 m
形状 Box+pan
製造者 GESIH/SECM
バスタイプ Qianfan
フェーズステータス In Orbit
所有者/国 YUANX/CN

Most Searched